Back to catalog

FALCON 9 R/B

AliveHEO
NORAD 54226·ROCKET BODY·🇺🇸 United States

Launched Nov 3, 2022 from Cape Canaveral Space Force Station

Loading…

Next Passes (next 24 hours)

TLE

FreshSource: Space-Track

Epoch: Sep 13, 2026, 04:01 UTC

1 54226U 22146B   26256.16799113 -.00000249  00000-0  50537-3 0  9991
2 54226  27.0831  33.1033 7979135 292.9912   5.9517  1.39827313 18935

Track FALCON 9 R/B in real time with AllMySat

Download on the App Store